FW6665 Weather Reports


Display with metric or nautical units.
time (UTC)temp
F
wind
direction
speed
MPH
gust
MPH
rain 1hr
in
rain 24hr
in
rain mn
in
humidity
%
barometer
mb
20260509153703 69 100 3.0 6.0 0.00 0.00 0.00 39 1014.3
20260509153204 69 113 1.0 6.0 0.00 0.00 0.00 40 1014.4
20260509152203 70 78 1.0 4.0 0.00 0.00 0.00 42 1014.5
20260509151705 70 142 1.0 4.0 0.00 0.00 0.00 44 1014.5
20260509151203 70 109 1.0 5.0 0.00 0.00 0.00 44 1014.4
20260509150205 69 85 1.0 9.0 0.00 0.00 0.00 45 1014.4
20260509145705 70 142 1.0 9.0 0.00 0.00 0.00 45 1014.3
20260509145204 70 111 1.0 5.0 0.00 0.00 0.00 44 1014.2
20260509144709 70 117 1.0 5.0 0.00 0.00 0.00 44 1014.3
20260509144205 70 144 1.0 6.0 0.00 0.00 0.00 44 1014.1
20260509143205 70 107 2.0 4.0 0.00 0.00 0.00 43 1013.9
20260509142704 70 127 2.0 4.0 0.00 0.00 0.00 41 1013.9
20260509142204 70 144 2.0 4.0 0.00 0.00 0.00 41 1013.9
20260509141705 71 133 2.0 4.0 0.00 0.00 0.00 41 1013.9
20260509141205 71 121 1.0 4.0 0.00 0.00 0.00 42 1014.0
20260509140705 71 173 1.0 4.0 0.00 0.00 0.00 44 1014.0
20260509140205 71 92 1.0 4.0 0.00 0.00 0.00 43 1014.0
20260509135704 71 97 2.0 4.0 0.00 0.00 0.00 42 1014.0
20260509135205 71 75 1.0 4.0 0.00 0.00 0.00 43 1014.1
20260509134704 71 87 1.0 4.0 0.00 0.00 0.00 43 1014.1
20260509134205 71 79 1.0 4.0 0.00 0.00 0.00 42 1014.0
20260509133704 71 110 2.0 10.0 0.00 0.00 0.00 42 1014.0
20260509133204 70 137 1.0 10.0 0.00 0.00 0.00 44 1014.0
20260509132704 71 99 1.0 10.0 0.00 0.00 0.00 44 1014.0
20260509132205 71 133 2.0 7.0 0.00 0.00 0.00 43 1014.1
20260509131704 70 116 1.0 9.0 0.00 0.00 0.00 45 1014.0
20260509131205 71 54 2.0 9.0 0.00 0.00 0.00 43 1014.1
20260509130704 71 133 1.0 9.0 0.00 0.00 0.00 42 1014.2
20260509130204 71 140 2.0 4.0 0.00 0.00 0.00 42 1014.2
20260509125704 71 125 2.0 5.0 0.00 0.00 0.00 44 1014.2
20260509125205 71 124 1.0 5.0 0.00 0.00 0.00 42 1014.4
20260509124705 71 151 1.0 5.0 0.00 0.00 0.00 45 1014.4
20260509124204 71 159 1.0 5.0 0.00 0.00 0.00 43 1014.5
20260509123705 70 121 2.0 4.0 0.00 0.00 0.00 45 1014.5
20260509123204 70 63 0.0 5.0 0.00 0.00 0.00 46 1014.5
20260509122204 69 79 2.0 5.0 0.00 0.00 0.00 46 1014.6
20260509121703 69 141 2.0 4.0 0.00 0.00 0.00 45 1014.7
20260509121204 69 68 1.0 3.0 0.00 0.00 0.00 45 1014.8
20260509120704 69 235 1.0 5.0 0.00 0.00 0.00 45 1014.8
20260509115704 69 107 1.0 5.0 0.00 0.00 0.00 47 1014.9
20260509115204 69 131 2.0 4.0 0.00 0.00 0.00 48 1014.9
20260509114714 69 148 1.0 4.0 0.00 0.00 0.00 47 1014.9
20260509114205 69 134 1.0 6.0 0.00 0.00 0.00 48 1014.9
20260509113710 69 134 1.0 6.0 0.00 0.00 0.00 47 1014.9
20260509113204 69 102 2.0 6.0 0.00 0.00 0.00 46 1015.1
20260509112705 69 130 1.0 6.0 0.00 0.00 0.00 47 1015.1
20260509111704 68 56 0.0 4.0 0.00 0.00 0.00 48 1015.2
20260509111205 69 113 2.0 4.0 0.00 0.00 0.00 46 1015.2
20260509110703 69 128 1.0 4.0 0.00 0.00 0.00 49 1015.2
20260509105704 68 110 1.0 3.0 0.00 0.00 0.00 48 1015.2
20260509104705 69 164 2.0 5.0 0.00 0.00 0.00 49 1015.4
20260509104204 69 130 1.0 5.0 0.00 0.00 0.00 51 1015.5
20260509103707 69 111 0.0 4.0 0.00 0.00 0.00 52 1015.5
20260509103204 69 110 1.0 5.0 0.00 0.00 0.00 51 1015.6
20260509102704 68 93 1.0 5.0 0.00 0.00 0.00 52 1015.7
20260509102205 68 92 1.0 5.0 0.00 0.00 0.00 53 1015.6
20260509101704 68 78 1.0 6.0 0.00 0.00 0.00 54 1015.8
20260509100704 67 118 1.0 6.0 0.00 0.00 0.00 55 1015.7
20260509100204 68 113 2.0 4.0 0.00 0.00 0.00 54 1015.7
20260509095705 67 97 2.0 3.0 0.00 0.00 0.00 55 1015.8
20260509095204 67 219 1.0 3.0 0.00 0.00 0.00 58 1015.8
20260509094705 67 118 1.0 3.0 0.00 0.00 0.00 57 1015.7
20260509093704 67 79 0.0 3.0 0.00 0.00 0.00 59 1015.7
20260509093204 66 79 1.0 4.0 0.00 0.00 0.00 60 1015.8
20260509092704 66 79 0.0 4.0 0.00 0.00 0.00 62 1015.8
20260509091204 65 125 1.0 3.0 0.00 0.00 0.00 63 1015.8
20260509090704 65 125 0.0 4.0 0.00 0.00 0.00 64 1015.8
20260509090205 64 123 0.0 4.0 0.00 0.00 0.00 64 1015.8
20260509085705 64 123 0.0 4.0 0.00 0.00 0.00 66 1015.8
20260509085205 64 124 0.0 2.0 0.00 0.00 0.00 66 1015.8
20260509084705 63 123 0.0 3.0 0.00 0.00 0.00 67 1015.8
20260509083706 62 123 0.0 3.0 0.00 0.00 0.00 69 1015.9
20260509083205 62 123 0.0 3.0 0.00 0.00 0.00 71 1015.9
20260509082706 61 123 1.0 3.0 0.00 0.00 0.00 71 1016.0
20260509082205 61 123 1.0 3.0 0.00 0.00 0.00 72 1015.9
20260509081714 60 125 0.0 3.0 0.00 0.00 0.00 75 1016.0
20260509081204 60 125 0.0 3.0 0.00 0.00 0.00 76 1016.1
20260509080704 59 125 1.0 3.0 0.00 0.00 0.00 77 1016.1
20260509080204 58 127 0.0 3.0 0.00 0.00 0.00 78 1015.9
20260509075705 58 127 0.0 4.0 0.00 0.00 0.00 80 1015.9
20260509075204 57 128 1.0 4.0 0.00 0.00 0.00 81 1015.9
20260509074704 56 127 1.0 4.0 0.00 0.00 0.00 82 1015.9
20260509074204 56 127 0.0 4.0 0.00 0.00 0.00 83 1015.8
20260509073705 56 130 0.0 2.0 0.00 0.00 0.00 83 1015.8
20260509073205 55 130 1.0 1.0 0.00 0.00 0.00 81 1015.8
20260509072705 55 130 1.0 1.0 0.00 0.00 0.00 79 1015.8
20260509072205 54 133 0.0 1.0 0.00 0.00 0.00 78 1015.8
20260509071704 53 133 0.0 2.0 0.00 0.00 0.00 77 1015.8
20260509071204 53 133 0.0 2.0 0.00 0.00 0.00 76 1015.7
20260509070709 53 133 0.0 1.0 0.00 0.00 0.00 75 1015.8
20260509070204 52 133 0.0 2.0 0.00 0.00 0.00 74 1015.8
20260509065706 52 133 0.0 2.0 0.00 0.00 0.00 73 1015.7
20260509065205 51 133 0.0 2.0 0.00 0.00 0.00 72 1015.7
20260509064705 51 133 0.0 1.0 0.00 0.00 0.00 72 1015.7
20260509064204 51 133 0.0 1.0 0.00 0.00 0.00 71 1015.6
20260509063705 51 133 0.0 1.0 0.00 0.00 0.00 70 1015.6
20260509063203 50 133 0.0 1.0 0.00 0.00 0.00 70 1015.6
20260509062205 50 133 0.0 0.0 0.00 0.00 0.00 70 1015.6
20260509061204 49 133 0.0 0.0 0.00 0.00 0.00 71 1015.7
20260509060704 49 133 0.0 0.0 0.00 0.00 0.00 72 1015.8
20260509060204 48 133 0.0 0.0 0.00 0.00 0.00 72 1015.6
20260509055704 48 133 0.0 0.0 0.00 0.00 0.00 72 1015.6
20260509054704 47 133 0.0 0.0 0.00 0.00 0.00 72 1015.6
20260509054205 47 133 0.0 0.0 0.00 0.00 0.00 72 1015.6
20260509053704 47 133 0.0 0.0 0.00 0.00 0.00 72 1015.7
20260509052706 46 133 0.0 0.0 0.00 0.00 0.00 73 1015.6
20260509052204 46 133 0.0 0.0 0.00 0.00 0.00 74 1015.6
20260509051705 45 133 0.0 0.0 0.00 0.00 0.00 75 1015.6
20260509051204 45 133 0.0 0.0 0.00 0.00 0.00 76 1015.6
20260509050704 44 133 0.0 0.0 0.00 0.00 0.00 77 1015.6
20260509050205 44 133 0.0 0.0 0.00 0.00 0.00 77 1015.6
20260509045703 44 133 0.0 0.0 0.00 0.00 0.00 79 1015.5
20260509044705 44 133 0.0 0.0 0.00 0.00 0.00 80 1015.5
20260509044204 44 133 0.0 0.0 0.00 0.00 0.00 80 1015.6
20260509043704 44 133 0.0 0.0 0.00 0.00 0.00 80 1015.6
20260509043229 44 133 0.0 0.0 0.00 0.00 0.00 80 1015.5
20260509042704 44 133 0.0 0.0 0.00 0.00 0.00 80 1015.7
20260509042205 44 133 0.0 0.0 0.00 0.00 0.00 80 1015.5
20260509041204 44 133 0.0 0.0 0.00 0.00 0.00 81 1015.6
20260509040204 44 133 0.0 0.0 0.00 0.00 0.00 81 1015.6
20260509035704 44 133 0.0 0.0 0.00 0.00 0.00 81 1015.6
20260509035204 44 133 0.0 0.0 0.00 0.00 0.00 81 1015.6
20260509034704 44 133 0.0 0.0 0.00 0.00 0.00 81 1015.6
20260509034205 44 133 0.0 0.0 0.00 0.00 0.00 81 1015.5
20260509033704 45 133 0.0 0.0 0.00 0.00 0.00 81 1015.5
20260509033205 45 133 0.0 0.0 0.00 0.00 0.00 81 1015.5
20260509032705 45 133 0.0 0.0 0.00 0.00 0.00 81 1015.5
20260509032204 45 133 0.0 0.0 0.00 0.00 0.00 82 1015.4
20260509031705 45 133 0.0 0.0 0.00 0.00 0.00 82 1015.5
20260509031204 45 133 0.0 0.0 0.00 0.00 0.00 82 1015.4
20260509030704 45 133 0.0 0.0 0.00 0.00 0.00 82 1015.4
20260509030204 45 133 0.0 0.0 0.00 0.00 0.00 82 1015.4
20260509025704 45 133 0.0 0.0 0.00 0.00 0.00 82 1015.5
20260509025204 46 133 0.0 0.0 0.00 0.00 0.00 82 1015.6
20260509024705 46 133 0.0 0.0 0.00 0.00 0.00 82 1015.6
20260509024204 46 133 0.0 0.0 0.00 0.00 0.00 82 1015.7
20260509023704 46 133 0.0 0.0 0.00 0.00 0.00 82 1015.7
20260509023205 46 133 0.0 0.0 0.00 0.00 0.00 82 1015.6
20260509022204 46 133 0.0 0.0 0.00 0.00 0.00 82 1015.6
20260509021705 46 133 0.0 0.0 0.00 0.00 0.00 82 1015.6
20260509020705 47 133 0.0 0.0 0.00 0.00 0.00 83 1015.6
20260509015205 47 133 0.0 0.0 0.00 0.00 0.00 82 1015.6
20260509014704 47 133 0.0 0.0 0.00 0.00 0.00 82 1015.6
20260509014204 47 133 0.0 0.0 0.00 0.00 0.00 82 1015.7
20260509013705 47 133 0.0 0.0 0.00 0.00 0.00 82 1015.7
20260509013205 47 133 0.0 0.0 0.00 0.00 0.00 83 1015.7
20260509012704 47 133 0.0 0.0 0.00 0.00 0.00 83 1015.8
20260509012205 47 133 0.0 0.0 0.00 0.00 0.00 83 1015.7
20260509011705 48 133 0.0 0.0 0.00 0.00 0.00 83 1015.7
20260509011204 48 133 0.0 0.0 0.00 0.00 0.00 83 1015.7
20260509010204 48 133 0.0 0.0 0.00 0.00 0.00 83 1015.8
20260509005705 48 133 0.0 0.0 0.00 0.00 0.00 83 1015.7
20260509005204 48 133 0.0 0.0 0.00 0.00 0.00 83 1015.7
20260509004704 48 133 0.0 1.0 0.00 0.00 0.00 83 1015.7
20260509004204 48 133 0.0 1.0 0.00 0.00 0.00 83 1015.7
20260509003704 48 133 0.0 0.0 0.00 0.00 0.00 83 1015.8
20260509002204 49 133 0.0 0.0 0.00 0.00 0.00 83 1015.9
20260509001704 49 133 0.0 0.0 0.00 0.00 0.00 83 1015.8
20260509001204 49 133 0.0 0.0 0.00 0.00 0.00 83 1015.8
20260509000704 49 133 0.0 0.0 0.00 0.00 0.00 83 1015.8
20260509000204 49 133 0.0 0.0 0.00 0.00 0.00 83 1015.9
20260508235705 49 133 0.0 0.0 0.00 0.00 0.00 83 1015.8
20260508235204 49 133 0.0 0.0 0.00 0.00 0.00 83 1015.9
20260508234704 49 133 0.0 0.0 0.00 0.00 0.00 83 1015.9
20260508234204 49 133 0.0 0.0 0.00 0.00 0.00 83 1015.9
20260508232703 50 133 0.0 0.0 0.00 0.00 0.00 83 1015.9
20260508232205 50 133 0.0 0.0 0.00 0.00 0.00 83 1015.9
20260508231705 50 133 0.0 0.0 0.00 0.00 0.00 83 1016.1
20260508231204 50 133 0.0 0.0 0.00 0.00 0.00 82 1016.0
20260508230705 50 133 0.0 0.0 0.00 0.00 0.00 82 1016.1
20260508230205 50 133 0.0 0.0 0.00 0.00 0.00 82 1016.0
20260508225204 51 133 0.0 0.0 0.00 0.00 0.00 82 1016.0
20260508224206 51 133 0.0 0.0 0.00 0.00 0.00 81 1016.1
20260508223705 51 133 0.0 1.0 0.00 0.00 0.00 81 1016.1
20260508223204 51 133 0.0 1.0 0.00 0.00 0.00 81 1016.0
20260508222705 51 133 0.0 1.0 0.00 0.00 0.00 81 1016.1
20260508222204 51 133 0.0 1.0 0.00 0.00 0.00 80 1015.9
20260508221704 51 133 0.0 1.0 0.00 0.00 0.00 80 1016.0
20260508221204 52 133 0.0 1.0 0.00 0.00 0.00 79 1015.9
20260508220704 52 133 0.0 0.0 0.00 0.00 0.00 79 1016.0
20260508220203 52 133 0.0 1.0 0.00 0.00 0.00 79 1015.9
20260508214704 52 133 0.0 0.0 0.00 0.00 0.00 78 1015.9
20260508214204 53 133 0.0 0.0 0.00 0.00 0.00 77 1015.9
20260508213704 53 133 0.0 0.0 0.00 0.00 0.00 77 1015.9
20260508213205 53 133 0.0 0.0 0.00 0.00 0.00 76 1015.9
20260508212705 53 133 0.0 0.0 0.00 0.00 0.00 76 1015.8
20260508212206 53 133 0.0 0.0 0.00 0.00 0.00 75 1015.8
20260508211704 53 133 0.0 1.0 0.00 0.00 0.00 75 1015.8
20260508211220 53 133 0.0 1.0 0.00 0.00 0.00 74 1015.7
20260508210704 54 133 0.0 1.0 0.00 0.00 0.00 74 1015.7
20260508210204 54 133 0.0 1.0 0.00 0.00 0.00 74 1015.7
20260508205704 54 133 0.0 1.0 0.00 0.00 0.00 73 1015.7
20260508205205 54 133 0.0 1.0 0.00 0.00 0.00 73 1015.6
20260508204704 54 133 0.0 1.0 0.00 0.00 0.00 73 1015.7
20260508204204 55 133 0.0 1.0 0.00 0.00 0.00 72 1015.6
20260508203705 55 133 0.0 1.0 0.00 0.00 0.00 72 1015.6
20260508203204 55 133 0.0 1.0 0.00 0.00 0.00 72 1015.6
20260508202205 55 134 0.0 2.0 0.00 0.00 0.00 72 1015.5
20260508201705 56 134 0.0 2.0 0.00 0.00 0.00 71 1015.5
20260508200704 56 134 0.0 1.0 0.00 0.00 0.00 70 1015.4
20260508200204 56 134 0.0 1.0 0.00 0.00 0.00 70 1015.4
20260508195704 56 134 0.0 1.0 0.00 0.00 0.00 69 1015.3
20260508195204 57 134 0.0 1.0 0.00 0.00 0.00 69 1015.3
20260508194704 57 134 0.0 2.0 0.00 0.00 0.00 69 1015.2
20260508194205 57 134 0.0 2.0 0.00 0.00 0.00 68 1015.2
20260508193704 57 134 0.0 2.0 0.00 0.00 0.00 67 1015.2
20260508193205 58 134 0.0 2.0 0.00 0.00 0.00 66 1015.0
20260508192204 58 134 0.0 2.0 0.00 0.00 0.00 65 1015.0
20260508191204 59 134 0.0 2.0 0.00 0.00 0.00 63 1014.8
20260508190704 59 134 0.0 5.0 0.00 0.00 0.00 62 1014.8
20260508190204 59 134 0.0 5.0 0.00 0.00 0.00 61 1014.8
20260508185704 60 113 1.0 5.0 0.00 0.00 0.00 60 1014.8
20260508185204 60 117 0.0 2.0 0.00 0.00 0.00 60 1014.7
20260508184705 61 117 0.0 1.0 0.00 0.00 0.00 60 1014.7
20260508184207 61 117 0.0 3.0 0.00 0.00 0.00 60 1014.7
20260508183705 62 117 0.0 3.0 0.00 0.00 0.00 60 1014.6
20260508183205 62 117 0.0 3.0 0.00 0.00 0.00 60 1014.6
20260508182704 62 117 1.0 4.0 0.00 0.00 0.00 59 1014.6
20260508182205 62 117 0.0 4.0 0.00 0.00 0.00 59 1014.5
20260508181204 63 110 0.0 2.0 0.00 0.00 0.00 58 1014.4
20260508180704 63 110 1.0 3.0 0.00 0.00 0.00 58 1014.3
20260508180204 64 110 0.0 4.0 0.00 0.00 0.00 58 1014.4
20260508175204 64 110 1.0 3.0 0.00 0.00 0.00 58 1014.3
20260508174704 64 90 0.0 3.0 0.00 0.00 0.00 57 1014.3
20260508174204 65 99 1.0 3.0 0.00 0.00 0.00 57 1014.3
20260508173705 65 94 1.0 3.0 0.00 0.00 0.00 58 1014.2
20260508173204 64 94 0.0 3.0 0.00 0.00 0.00 58 1014.2
20260508172708 64 94 0.0 3.0 0.00 0.00 0.00 58 1014.2
20260508171704 65 86 0.0 2.0 0.00 0.00 0.00 57 1014.2
20260508171204 65 85 1.0 3.0 0.00 0.00 0.00 58 1014.2
20260508170204 65 85 1.0 2.0 0.00 0.00 0.00 57 1014.0
20260508165704 65 83 1.0 3.0 0.00 0.00 0.00 57 1014.0
20260508165204 65 80 1.0 4.0 0.00 0.00 0.00 56 1014.0
20260508163705 65 113 0.0 3.0 0.00 0.00 0.00 56 1013.9
20260508162704 65 113 1.0 5.0 0.00 0.00 0.00 56 1013.9
20260508162204 65 116 1.0 5.0 0.00 0.00 0.00 56 1013.9
20260508161704 66 120 0.0 4.0 0.00 0.00 0.00 56 1013.8
20260508161205 66 120 1.0 4.0 0.00 0.00 0.00 55 1013.9
20260508160704 66 120 0.0 5.0 0.00 0.00 0.00 56 1013.8
20260508160205 66 121 1.0 5.0 0.00 0.00 0.00 56 1013.8
20260508155705 65 94 0.0 6.0 0.00 0.00 0.00 55 1013.8
20260508155205 66 83 2.0 6.0 0.00 0.00 0.00 55 1013.8
20260508154705 66 71 2.0 6.0 0.00 0.00 0.00 55 1013.8
20260508154204 66 107 1.0 4.0 0.00 0.00 0.00 56 1013.8